RH
69 69 68 68 66 64 68 80 82 81 86 94 98 99 93 90 93 88 91 90 86 83 94 83 81 78 91 90 89 66 65 71 81 89 80 76 78 75 76 79 76 84 77 69 64 66 65
68 68 67 67 66 66 65 66 72 79 82 86 94 98 96 91 88 86 96 80 80 90 91 92 79 84 84 96 59 61 60 70 88 89 86 75 73 75 80 78 74 68 73 72 67 65 64
68 67 66 65 63 63 69 72 67 72 76 81 91 99 93 94 89 92 91 75 75 88 84 89 80 79 89 77 56 57 56 61 91 80 90 87 77 78 78 88 76 77 87 72 72 67 65
65 65 62 61 64 59 57 59 56 71 79 79 84 95 95 98 90 93 82 80 69 87 91 85 89 78 80 57 61 55 56 52 58 74 63 75 82 81 84 75 71 81 83 84 61 64 64
61 65 60 64 67 68 63 62 58 66 78 78 79 87 97 93 96 93 87 79 68 85 78 92 90 78 88 63 70 59 54 50 54 58 54 73 68 76 84 90 86 86 84 86 68 58 61
63 63 68 68 71 72 69 64 61 59 76 85 83 83 95 97 98 96 92 81 83 83 88 94 89 88 78 66 64 64 55 51 52 55 54 59 66 76 78 87 88 83 90 82 77 62 65
78 85 72 74 72 70 66 64 64 57 68 78 89 89 91 87 95 100 99 94 94 94 93 84 80 75 65 62 61 66 61 54 56 62 86 69 83 88 80 82 72 82 89 87 76 59 68
76 73 72 72 70 67 67 63 63 66 74 80 92 91 90 91 98 98 89 87 75 61 91 86 84 80 72 65 72 69 61 68 70 85 78 81 91 66 70 75 78 77 83 78 64 55 60
75 75 75 73 77 71 70 66 68 71 84 87 94 82 90 95 98 99 93 67 59 53 79 72 82 86 76 67 73 76 65 74 80 91 86 87 71 66 72 80 78 78 80 69 71 66 62
75 80 82 78 79 80 73 69 71 82 88 88 94 92 93 96 95 93 95 68 60 46 86 72 95 86 79 67 76 61 61 68 80 88 84 75 61 74 83 84 81 91 69 72 77 82 78
84 80 80 79 80 81 83 72 74 79 76 85 95 98 97 98 96 98 88 75 59 52 75 75 93 70 73 74 67 80 62 64 89 89 83 78 84 90 86 74 74 76 66 72 78 90 91
78 80 82 83 83 81 84 73 73 70 73 89 89 99 98 94 99 85 92 76 51 81 94 91 81 93 92 75 76 76 71 61 65 78 80 74 70 72 75 69 67 65 81 76 79 85 94
76 79 81 81 84 81 84 73 72 67 74 87 98 100 99 94 87 98 97 88 93 88 69 93 88 91 75 84 82 77 85 92 93 98 98 81 80 74 70 78 73 72 98 93 95 97 82
71 68 80 83 82 81 82 72 66 67 81 88 91 98 88 96 71 86 91 98 93 68 78 69 71 84 86 70 74 80 87 90 80 89 97 97 88 83 74 73 81 88 80 87 86 82 73
72 74 82 82 80 82 80 71 67 67 86 96 88 92 99 96 90 87 96 98 77 69 82 78 75 84 87 76 78 80 87 84 76 77 97 95 88 78 82 75 65 94 97 66 88 75 92
67 80 83 80 78 81 78 73 65 82 89 96 98 94 98 89 94 96 99 91 66 71 73 72 86 76 85 85 92 88 89 74 74 74 67 84 98 75 80 75 75 86 75 96 97 94 86
84 81 82 79 81 79 80 69 69 86 94 99 98 96 93 83 83 98 100 93 75 74 66 73 79 86 78 86 85 88 84 71 76 85 73 85 96 82 90 91 74 89 97 99 95 95 89
82 80 80 80 84 78 83 70 72 83 93 98 95 100 89 94 100 100 100 74 67 87 76 79 68 70 74 77 80 81 80 68 70 82 94 76 94 97 82 66 63 64 72 70 94 85 91
81 79 79 80 80 80 80 67 74 88 98 100 98 96 96 80 100 100 89 80 76 80 83 79 82 72 70 77 89 83 80 64 76 78 87 81 98 98 86 85 73 96 82 70 73 71 88
82 80 77 80 81 83 68 68 76 92 99 100 98 100 99 97 92 92 82 82 85 71 82 74 78 74 80 84 71 83 87 66 73 72 66 68 88 90 72 67 86 99 85 85 97 96 74
85 83 81 80 79 82 68 71 80 93 90 100 98 99 90 99 99 79 67 70 84 90 72 70 86 79 78 93 86 87 78 71 78 71 71 84 99 93 85 73 81 99 100 96 98 84 90
84 83 81 79 77 75 70 71 80 84 99 90 99 86 89 87 86 71 75 81 72 86 77 85 80 66 78 91 79 86 78 77 75 77 78 85 98 100 97 90 96 98 94 95 95 92 81
86 84 81 80 72 80 72 72 78 80 99 94 89 94 97 83 89 80 85 81 83 75 72 71 75 76 88 75 72 73 72 68 71 74 81 98 100 100 90 86 100 99 94 95 90 81 78
81 82 82 78 76 78 80 72 76 82 99 99 94 99 99 92 81 76 71 71 77 77 81 79 79 86 71 72 69 76 81 82 76 79 72 98 100 100 98 99 98 95 75 77 86 70 61
81 79 76 77 75 76 81 74 81 82 95 99 99 99 98 89 77 71 77 66 67 72 84 80 75 71 65 72 88 87 94 91 81 90 92 81 99 100 100 96 85 85 76 83 83 80 61
80 81 79 80 79 81 81 78 81 80 91 99 98 100 99 90 82 61 82 81 90 92 89 84 89 87 76 91 90 100 94 85 88 86 89 85 88 100 96 97 96 63 78 65 68 81 64
80 82 82 81 81 81 82 79 81 78 89 98 97 100 100 96 80 68 80 88 82 86 90 87 92 95 86 97 94 100 98 76 89 92 96 95 93 98 94 95 80 61 60 74 82 66 66
80 78 77 79 80 81 81 80 82 78 85 94 92 98 99 99 85 68 72 87 86 86 88 85 92 96 99 99 99 94 99 91 88 80 83 89 94 97 82 88 85 57 73 73 54 61 64
77 77 80 82 84 82 81 82 79 80 86 92 95 88 98 99 88 85 75 70 62 67 83 90 86 89 90 96 96 91 88 96 89 88 84 92 76 78 81 78 59 58 59 57 64 68 64
Wind_Speed
24 25 25 25 26 26 27 27 27 27 27 25 27 18 20 19 20 14 11 9 7 6 5 4 2 2 2 3 4 2 1 3 9 18 12 7 4 4 3 2 2 3 2 3 4 6 5
24 25 26 26 26 25 26 26 27 27 28 28 28 25 20 19 21 17 13 10 8 7 6 3 2 2 4 5 4 5 2 1 6 18 10 7 4 4 2 2 3 2 3 5 6 8 5
24 25 26 26 27 27 28 28 28 29 29 27 28 26 23 19 19 20 15 12 9 9 8 6 2 3 2 9 3 3 3 4 7 11 5 6 7 4 4 1 1 3 5 8 9 8 8
25 24 27 27 27 28 29 29 30 30 28 27 27 28 25 17 17 21 17 14 10 10 9 8 5 4 5 3 7 14 5 4 6 8 6 8 8 3 2 0 3 2 3 3 3 1 6
25 24 26 27 28 28 29 30 30 29 29 27 27 27 24 20 14 19 20 15 12 8 6 9 6 4 6 2 3 6 11 6 7 6 6 9 8 4 2 3 2 3 3 5 5 5 3
25 23 26 28 30 29 30 31 31 27 29 28 27 26 23 22 16 16 23 17 11 7 6 7 3 1 3 2 4 7 10 10 3 6 3 3 3 4 3 4 5 4 5 4 4 1 3
25 26 29 27 28 29 32 32 32 31 28 31 30 24 24 23 19 13 28 18 5 2 6 6 5 2 2 3 6 3 9 8 4 4 5 1 5 9 11 6 5 1 3 7 5 8 10
28 27 27 28 28 30 29 31 31 30 28 32 29 22 21 26 22 20 39 7 9 10 6 12 2 3 4 1 3 2 12 5 5 4 5 3 10 11 1 8 10 11 13 15 10 6 8
28 29 29 30 30 30 30 31 31 29 30 28 26 24 23 24 22 21 30 18 25 16 4 2 7 5 4 3 2 7 8 4 4 5 7 5 2 2 10 6 9 11 12 13 13 8 13
30 31 31 30 31 31 30 32 30 30 27 27 26 25 28 24 14 12 22 25 23 15 4 4 4 5 7 6 4 8 13 5 2 10 5 9 9 6 4 6 8 15 5 11 13 7 7
30 31 30 31 31 31 29 31 30 29 28 28 30 38 30 19 9 8 16 31 25 4 2 4 4 6 7 11 5 2 5 3 7 6 5 4 6 5 12 11 7 6 5 6 8 8 8
31 32 32 31 31 31 29 30 31 30 29 29 39 30 21 12 11 17 36 30 11 5 6 6 5 7 8 6 4 4 6 0 3 4 5 6 2 6 8 7 13 3 2 8 2 5 8
31 32 31 32 31 31 28 28 32 31 28 33 37 31 15 13 6 5 40 12 3 4 3 8 6 8 10 7 6 7 9 8 5 4 6 5 15 5 4 3 1 9 3 2 4 6 7
32 31 33 32 31 30 27 29 31 31 32 37 40 23 10 19 16 16 26 5 4 5 4 4 6 9 5 9 4 7 10 8 11 2 1 4 5 11 8 14 7 11 11 5 5 5 4
33 32 33 31 31 29 27 29 32 31 34 35 36 6 5 13 15 9 10 3 6 6 9 10 11 6 3 3 3 5 7 5 9 15 7 4 4 1 7 5 7 4 10 10 5 11 6
31 32 33 31 31 29 27 30 30 33 35 29 23 6 4 12 17 2 2 4 3 3 14 10 5 5 9 9 7 9 7 4 5 10 10 2 5 5 2 4 5 6 1 3 5 5 8
33 33 32 31 30 30 28 30 30 33 34 24 10 2 7 11 16 1 2 2 5 3 6 4 4 5 6 7 7 6 5 3 6 5 12 5 5 2 4 9 11 8 6 5 3 4 3
31 31 31 30 28 29 28 30 30 34 37 9 3 2 15 16 3 2 3 5 5 4 3 4 4 5 5 6 5 4 6 5 6 8 9 8 3 5 9 7 15 14 15 18 9 8 4
31 31 31 29 28 27 28 29 30 34 35 11 4 2 14 6 3 3 2 3 4 3 2 2 3 3 3 4 5 5 3 4 9 9 10 9 4 3 5 1 4 8 14 20 16 8 16
31 30 31 30 28 27 29 28 30 35 36 27 1 1 2 1 1 6 4 3 5 3 3 3 3 4 3 3 3 3 4 3 10 8 9 10 5 8 10 12 2 6 16 18 16 6 14
30 30 30 29 28 27 29 30 32 33 46 10 3 0 1 3 1 5 3 3 5 3 1 3 2 3 5 4 4 4 5 3 5 10 9 8 7 12 19 23 18 18 12 19 19 22 12
29 29 29 28 28 28 28 30 33 35 40 8 4 1 1 4 6 6 4 4 6 4 4 3 3 6 7 4 6 4 5 5 5 5 8 6 5 4 17 19 21 22 23 21 21 21 21
29 28 28 26 27 28 29 30 32 34 31 4 5 5 1 8 6 5 4 7 6 6 4 3 6 4 8 8 6 9 6 6 4 6 11 4 3 3 11 6 10 8 13 20 20 21 15
29 28 26 26 26 26 26 27 29 32 30 16 6 3 2 4 7 6 9 5 5 7 2 1 6 4 3 3 3 4 7 11 13 13 9 5 3 3 6 7 3 3 5 12 19 17 21
28 27 27 25 25 24 25 25 27 27 30 28 13 3 2 3 6 6 9 7 2 0 3 2 3 4 1 2 2 4 0 3 7 11 10 14 3 3 3 6 7 5 7 1 8 9 19
28 27 24 24 24 24 24 24 26 28 30 32 15 5 3 3 7 4 5 5 3 3 1 2 2 2 3 3 2 2 3 4 3 1 7 5 4 1 3 4 4 3 5 3 1 3 3
26 26 23 23 23 24 24 23 24 26 28 30 10 15 4 2 2 5 6 5 4 3 1 1 3 3 2 3 3 4 3 2 3 2 3 3 2 3 4 4 7 3 5 2 4 6 7
24 24 23 24 23 22 23 24 25 26 28 28 17 14 9 2 2 1 4 5 3 4 4 3 2 1 2 2 2 3 3 4 2 4 5 6 5 4 3 3 6 0 2 1 3 4 3
22 23 22 23 24 22 21 21 23 23 23 23 10 26 23 4 2 2 2 2 4 6 4 3 1 2 3 3 4 3 4 1 3 3 1 3 5 3 7 5 4 4 6 5 3 3 3
Wind_Direction
360 358 358 353 348 346 346 342 340 338 334 332 332 313 280 266 242 237 231 235 243 256 268 283 289 281 154 261 246 222 6 232 193 188 174 150 131 128 181 190 139 228 271 258 297 303 269
355 354 353 352 350 347 341 338 337 336 331 329 334 329 303 278 249 238 228 220 236 236 236 247 246 181 120 226 264 260 230 87 155 177 175 151 144 155 188 213 177 218 250 267 279 266 256
351 350 349 347 348 346 341 337 337 333 329 326 326 327 323 294 258 233 221 209 222 225 221 227 210 167 127 239 190 173 181 113 135 168 145 183 150 142 159 209 243 248 290 280 241 230 239
345 349 347 344 345 344 340 337 330 329 323 322 320 325 327 313 266 230 219 204 204 219 214 204 190 162 242 244 242 254 220 155 143 147 123 169 165 146 169 263 349 227 211 257 269 224 242
345 342 345 342 339 340 339 336 332 328 323 323 317 318 323 312 296 236 209 195 190 206 219 194 160 151 263 270 211 216 195 158 157 147 120 135 139 160 123 145 310 216 252 230 303 199 288
341 340 339 336 334 333 333 332 330 327 322 319 320 309 322 317 299 243 198 174 166 162 147 145 113 256 250 204 155 139 162 155 125 118 92 137 172 170 178 172 224 196 230 242 228 335 348
333 333 331 334 330 329 329 330 328 322 319 324 318 303 311 319 295 272 167 133 114 164 199 196 190 232 99 109 123 109 159 118 92 98 168 194 201 211 204 201 208 164 248 248 264 287 310
329 330 331 328 329 327 326 326 326 321 318 318 318 313 302 313 296 285 169 165 183 157 187 234 169 282 277 68 114 122 159 136 146 164 135 151 236 235 315 207 230 248 262 269 293 286 285
327 328 329 330 329 325 325 324 327 321 318 318 323 315 310 307 292 277 183 174 156 133 102 245 201 187 181 142 193 182 157 133 140 149 190 194 142 159 199 208 226 237 245 269 270 296 279
331 329 329 330 327 323 324 325 325 321 323 320 323 313 308 304 287 248 190 160 146 151 83 219 186 237 161 112 258 187 178 142 151 189 171 249 240 221 172 207 199 256 218 243 256 264 268
331 331 330 330 327 325 325 325 323 322 322 320 315 309 295 281 280 199 173 160 147 92 61 145 158 158 155 164 148 236 167 91 155 175 154 216 186 185 219 231 169 231 197 222 229 240 286
331 332 331 330 329 328 326 325 323 323 323 320 310 311 295 260 222 278 168 149 125 68 239 153 128 165 150 200 138 118 164 245 141 184 234 219 196 169 192 196 192 116 293 251 239 236 247
332 331 335 333 331 330 328 327 324 325 322 319 316 312 267 214 176 191 156 136 131 148 141 155 170 163 168 163 171 153 172 182 179 173 213 224 231 185 155 163 205 164 172 241 228 213 244
334 334 335 334 335 333 331 329 328 326 325 325 326 308 237 210 207 262 153 175 132 157 161 147 128 132 170 144 205 166 162 199 221 163 167 199 310 185 183 214 201 182 184 202 226 219 240
334 336 339 338 337 335 333 332 329 326 327 331 335 307 182 200 178 244 163 156 178 183 143 133 124 146 170 185 141 164 204 206 196 189 197 189 265 354 192 185 202 188 213 233 265 264 268
341 340 340 340 340 339 337 334 331 331 332 339 331 294 173 172 192 248 170 132 109 105 120 139 130 176 174 179 172 183 184 211 211 179 191 158 275 216 172 164 237 206 200 173 191 241 247
338 342 342 342 342 342 339 337 335 335 336 335 314 237 162 152 150 146 152 171 111 136 124 130 116 147 150 166 172 181 209 285 187 184 176 137 209 256 147 202 201 200 228 211 278 222 242
341 344 345 346 345 343 341 341 336 338 336 356 302 236 161 151 106 150 147 177 118 111 21 98 100 103 135 142 162 188 218 228 175 142 178 198 216 237 233 209 204 213 230 219 233 222 228
343 347 347 348 345 345 344 343 340 337 340 341 326 255 167 107 145 122 226 66 84 100 97 83 91 83 118 151 152 199 189 228 165 165 172 163 214 297 291 30 216 221 218 225 227 246 237
345 348 347 346 347 345 348 346 343 339 339 330 249 150 85 183 297 127 160 88 97 39 98 92 106 94 109 150 238 163 223 261 186 195 179 174 211 211 243 251 175 231 224 218 220 226 245
345 346 347 347 348 348 350 347 346 346 342 343 212 246 178 164 129 154 115 101 111 114 95 160 117 201 179 192 194 219 214 237 169 200 189 181 252 239 252 263 266 254 238 214 217 230 227
346 347 347 347 348 348 350 348 348 351 345 18 345 36 333 149 139 132 91 184 175 134 165 171 173 183 188 219 204 205 208 189 208 177 186 195 261 255 270 263 255 257 250 229 223 225 237
346 345 347 347 348 348 349 350 350 350 355 354 314 296 254 161 157 153 198 164 183 132 228 156 205 184 208 239 247 247 250 262 232 175 195 213 235 259 275 307 276 251 253 232 229 221 220
346 346 347 348 347 350 350 349 348 348 353 347 308 269 272 168 167 189 170 172 147 188 119 78 152 204 198 193 253 249 237 246 243 241 207 198 191 236 292 305 268 313 303 238 220 225 224
346 347 344 347 347 347 347 350 347 345 350 345 314 261 259 124 191 184 160 191 166 340 192 180 210 209 155 298 319 300 311 271 242 232 224 218 156 280 287 304 276 326 331 32 178 237 225
345 347 343 346 345 345 348 347 347 347 349 346 339 319 285 139 213 154 138 168 149 180 121 229 28 28 194 184 162 251 225 250 302 8 2 180 152 177 340 309 319 288 330 18 286 301 271
347 349 347 344 346 344 345 345 348 345 348 351 301 346 287 287 287 137 168 168 123 135 172 124 173 158 203 166 216 220 241 250 257 211 179 151 195 219 241 273 284 281 307 326 6 305 340
347 349 349 346 345 346 345 343 346 348 348 352 313 352 340 329 303 56 150 128 95 158 164 167 121 101 132 213 226 234 224 233 213 222 185 182 160 204 185 234 293 24 47 163 261 309 313
346 346 347 344 341 340 341 342 344 341 343 347 324 328 329 241 290 10 28 65 172 180 137 174 169 127 191 222 221 235 218 207 193 262 28 237 194 187 179 219 231 218 235 278 306 254 310